Content
SEND FEEDBACK

Daily
Averages
Monthly
Summary
France

LE HAVRE, FRANCE


Home > Europe > France
Elevation: 338 feet     Latitude: 49 31N     Longitude: 000 04E

WEATHER
 
SELECT A DAY
Number of Records: 187,658;   Date Range: 3/4/97 - 12/19/14
 
SHARE

PRINT THIS DATA

[ ← Previous Day ]
WEATHER ALMANAC - SEPTEMBER 21, 2013
[ Next Day → ]
[ °C ]   °F
Weather ElementAverageHighLow
Temperature60.1 °F68 °F (5:30 pm)53.6 °F (5:00 am)
Dewpoint51.3 °F55.4 °F (9:30 pm)48.2 °F (12:30 am)
Humidity73.5 %88 % (2:00 am)49 % (5:30 pm)
Barometer30.29 in30.36 in (11:00 pm)30.21 in (1:00 am)
Wind Speed4.1 mph6.9 mph (2:30 pm)
Weather ElementAverage
Visibility6.2 mi
Wind DirectionS (184.9 °)

Weather ElementTotal
Precipitation---
Heating Degree Days4.2 (Base 65)
Growing Degree Days10.8 (Base 50)
Averaged from 47 records on September 21, 2013
WEATHER CONDITIONS BREAKOUT
WIND DIRECTION BREAKOUT
WEATHER BY HOUR - SEPTEMBER 21, 2013
[ °C ]   °F
Local TimeTemperatureDewpointHumidityBarometerVisibilityWind DirectionWind SpeedGust SpeedPrecipitationEventsConditions
12:30 AM57.2 °F48.2 °F72 %30.24 in6.2 miVariable3.5 mphOvercast
1:00 AM57.2 °F50.0 °F77 %30.21 in6.2 miSouth (180°)3.5 mphMostly Cloudy
1:30 AM55.4 °F50.0 °F82 %30.21 in6.2 miSSE (160°)4.6 mphPartly Cloudy
2:00 AM55.4 °F51.8 °F88 %30.24 in6.2 miSouth (190°)4.6 mphPartly Cloudy
2:30 AM55.4 °F50.0 °F82 %30.24 in6.2 miSSE (160°)3.5 mphScattered Clouds
3:00 AM55.4 °F50.0 °F82 %30.24 in6.2 miSouth (180°)3.5 mph
3:30 AM55.4 °F51.8 °F88 %30.24 in6.2 miSSW (200°)3.5 mphPartly Cloudy
4:00 AM55.4 °F50.0 °F82 %30.24 in6.2 miSouth (180°)4.6 mphPartly Cloudy
4:30 AM55.4 °F50.0 °F82 %30.24 in6.2 miSouth (180°)3.5 mph
5:00 AM53.6 °F48.2 °F82 %30.24 in6.2 miSW (230°)4.6 mph
5:30 AM55.4 °F50.0 °F82 %30.24 in6.2 miSouth (180°)5.8 mph
6:00 AM53.6 °F50.0 °F88 %30.24 in6.2 miSouth (170°)3.5 mph
6:30 AM53.6 °F50.0 °F88 %30.24 in6.2 miSouth (170°)4.6 mph
7:00 AM53.6 °F50.0 °F88 %30.27 in6.2 miCalm
7:30 AM53.6 °F50.0 °F88 %30.24 in6.2 miSSE (160°)3.5 mph
8:00 AM53.6 °F50.0 °F88 %30.27 in6.2 miSSE (160°)3.5 mph
8:30 AM53.6 °F50.0 °F88 %30.27 in6.2 miVariable2.3 mphPartly Cloudy
9:00 AM53.6 °F50.0 °F88 %30.27 in6.2 miSouth (170°)3.5 mph
9:30 AM55.4 °F50.0 °F82 %30.27 in6.2 miSSE (160°)4.6 mph
10:00 AM55.4 °F50.0 °F82 %30.27 in6.2 miSouth (170°)4.6 mph
10:30 AM57.2 °F50.0 °F77 %30.27 in6.2 miSSE (160°)4.6 mph
11:00 AM59.0 °F51.8 °F77 %30.30 in6.2 miSSW (200°)4.6 mphPartly Cloudy
11:30 AM60.8 °F51.8 °F72 %30.30 in6.2 miSSW (210°)4.6 mph
12:00 PM60.8 °F51.8 °F72 %30.30 in6.2 miSouth (190°)4.6 mph
12:30 PM60.8 °F51.8 °F72 %30.30 in6.2 miSouth (190°)5.8 mph
1:00 PM60.8 °F50.0 °F68 %30.30 in6.2 miSSW (200°)5.8 mph
1:30 PM62.6 °F50.0 °F63 %30.33 in6.2 miSSW (210°)5.8 mph
2:00 PM62.6 °F50.0 °F63 %30.33 in6.2 miSW (220°)5.8 mph
2:30 PM62.6 °F51.8 °F68 %30.33 in6.2 miSW (230°)6.9 mph
3:00 PM64.4 °F53.6 °F68 %30.30 in6.2 miSW (220°)6.9 mph
3:30 PM66.2 °F51.8 °F60 %30.30 in6.2 miWSW (250°)6.9 mph
4:00 PM66.2 °F51.8 °F60 %30.30 in6.2 miWest (260°)5.8 mph
4:30 PM64.4 °F51.8 °F64 %30.33 in6.2 miWNW (300°)4.6 mphPartly Cloudy
5:00 PM66.2 °F50.0 °F56 %30.30 in6.2 miWest (270°)3.5 mph
5:30 PM68.0 °F48.2 °F49 %30.30 in6.2 miWest (260°)3.5 mph
6:00 PM68.0 °F51.8 °F56 %30.30 in6.2 miWest (260°)4.6 mph
6:30 PM68.0 °F53.6 °F60 %30.30 in6.2 miWNW (300°)3.5 mph
7:00 PM68.0 °F53.6 °F60 %30.30 in6.2 miVariable2.3 mphMostly Cloudy
7:30 PM64.4 °F53.6 °F68 %30.33 in6.2 miWNW (300°)2.3 mphScattered Clouds
8:00 PM64.4 °F53.6 °F68 %30.33 in6.2 miVariable2.3 mphOvercast
8:30 PM66.2 °F51.8 °F60 %30.33 in6.2 miSouth (190°)2.3 mphOvercast
9:00 PM66.2 °F53.6 °F64 %30.33 in6.2 miVariable2.3 mphOvercast
9:30 PM64.4 °F55.4 °F73 %30.33 in6.2 miWSW (240°)3.5 mphOvercast
10:00 PM64.4 °F53.6 °F68 %30.33 in6.2 miWest (260°)4.6 mphOvercast
10:30 PM64.4 °F53.6 °F68 %30.33 in6.2 miWest (260°)3.5 mphOvercast
11:00 PM64.4 °F55.4 °F73 %30.36 in6.2 miWSW (250°)2.3 mphOvercast
11:30 PM64.4 °F53.6 °F68 %30.36 in6.2 miWest (260°)3.5 mphOvercast
Hourly data recorded from LFOH, located miles away from Le Havre, France







STORIES FROM OUR PARTNERS